Home > Weather > Eureka > Past weeks

Flag for Canada Past Weather in Eureka, Nunavut, Canada — Yesterday and Last 2 Weeks

Now
55 °F

Mostly cloudy.


Feels Like: 55 °F
Forecast: 44 / 51 °F
Wind: 5 mph from Southeast

Location: Eureka

Current Time: Jul 25, 2016 at 5:07:38 AM

Latest Report: Jul 25, 2016 at 4:00 AM


Visibility: 15 mi

Pressure: 29.88 "Hg

Humidity: 51%

Dew Point: 37 °F

Location of EurekaLocation

Past Weather in Eureka — Graph

°F

Eureka Temperature Yesterday

Maximum temperature yesterday: 61 °F (at 3:00 PM)
Minimum temperature yesterday: 54 °F (at 2:00 AM)
Average temperature yesterday: 58 °F

High & Low Weather Summary for the Past Weeks

 TemperatureHumidityPressure
High64 °F (Jul 12, 1:00 PM)66% (Jul 21, 1:00 AM)30.16 "Hg (Jul 21, 1:00 AM)
Low45 °F (Jul 21, 1:00 AM)26% (Jul 18, 12:00 PM)29.39 "Hg (Jul 20, 1:00 AM)
Average57 °F43%29.82 "Hg
* Reported Jul 10 3:00 AM — Jul 25 3:00 AM, Eureka, Weather by CustomWeather, © 2016

Note: Actual official high and low records may vary slightly from our data, if they occured in-between our weather recording intervals... More about our weather records

Advertising

Eureka Weather History for the Previous 24 Hours

Scroll right to see more
 ConditionsComfort  
Time TempWeatherWind HumidityBarometerVisibility
3:00 AM
Mon, Jul 25
54 °FMostly cloudy.5 mph54%29.88 "Hg15 mi
2:00 AM54 °FPartly sunny.5 mph54%29.88 "Hg15 mi
1:00 AM54 °FPartly sunny.No wind54%29.89 "Hg15 mi
10:00 PM
Sun, Jul 24
57 °FPartly sunny.2 mph48%29.89 "Hg15 mi
9:00 PM57 °FMore clouds than sun.6 mph48%29.89 "Hg15 mi
8:00 PM55 °FMostly cloudy.3 mph47%29.89 "Hg15 mi
7:00 PM57 °FOvercast.8 mph48%29.90 "Hg15 mi
6:00 PM59 °FPartly sunny.12 mph42%29.90 "Hg15 mi
5:00 PM59 °FPartly sunny.5 mph36%29.90 "Hg15 mi
4:00 PM61 °FPartly sunny.6 mph34%29.90 "Hg15 mi
3:00 PM61 °FPartly sunny.12 mph34%29.91 "Hg15 mi
2:00 PM59 °FPartly sunny.5 mph36%29.92 "Hg15 mi
1:00 PM59 °FBroken clouds.5 mph36%29.92 "Hg15 mi
12:00 PM57 °FBroken clouds.3 mph39%29.93 "Hg15 mi
11:00 AM59 °FPartly sunny.10 mph34%29.93 "Hg15 mi
10:00 AM59 °FPartly sunny.7 mph39%29.94 "Hg15 mi
9:00 AM59 °FPartly sunny.13 mph36%29.96 "Hg15 mi
8:00 AM59 °FPartly sunny.7 mph36%29.96 "Hg15 mi
7:00 AM59 °FPartly sunny.7 mph36%29.97 "Hg15 mi
6:00 AM59 °FBroken clouds.6 mph36%29.98 "Hg15 mi
5:00 AM57 °FPassing clouds.5 mph39%29.98 "Hg15 mi
Weather by CustomWeather, © 2016

See weather overviewHow to use our weather pages